Wind_Speed
7 7 6 6 5 5 4 4 4 4 4 4 4 5 5 5 5 5 5 5 5 7 7 7 7 7 7 7 7 7 7 8 8 7 8 8 8 7 6 7 6 6 5
7 7 6 6 6 5 5 4 4 4 5 5 5 5 5 5 5 6 6 5 6 7 8 7 7 8 7 7 7 7 6 7 6 6 7 6 6 5 6 6 5 5 4
7 7 6 6 6 6 5 4 4 5 5 5 6 5 5 5 5 6 6 6 7 8 9 8 7 7 7 7 6 6 6 6 6 6 7 6 6 5 5 5 5 5 5
8 7 6 6 6 6 5 5 5 5 5 5 6 5 5 5 5 5 6 7 7 8 8 8 7 6 7 6 6 6 6 6 6 5 6 6 6 5 5 5 5 5 5
9 8 7 7 7 6 6 5 5 5 5 6 6 5 5 5 5 5 6 7 7 7 7 7 7 6 6 6 5 4 5 5 5 4 6 6 6 5 5 4 5 5 6
9 8 8 8 7 7 6 6 6 6 6 6 6 5 5 5 5 6 7 7 7 6 6 6 7 6 5 5 4 4 4 4 5 4 5 5 5 5 5 4 4 5 6
9 8 8 8 7 7 7 7 6 6 6 6 6 6 6 5 6 7 7 6 7 6 6 6 5 5 5 6 4 4 5 5 4 4 5 5 5 5 5 4 4 4 4
10 8 8 8 8 8 8 8 7 7 6 7 7 7 6 6 6 6 6 7 7 6 6 5 5 5 6 5 5 5 5 4 3 3 4 4 5 5 5 5 4 4 4
10 9 9 8 8 7 8 8 7 7 7 7 7 7 7 7 7 7 7 7 6 6 6 7 7 6 5 5 5 4 4 3 3 3 3 4 4 4 5 5 4 4 4
11 11 10 9 9 8 9 8 8 7 7 8 8 8 8 7 7 7 7 7 6 6 7 7 7 7 6 5 4 4 4 3 3 3 4 3 4 4 5 4 4 4 4
12 11 10 10 10 10 10 9 9 8 8 8 8 8 8 8 7 7 6 7 7 6 6 6 6 6 6 5 5 4 4 3 3 3 3 4 3 4 4 4 3 3 3
12 11 11 10 10 11 10 9 9 9 9 8 8 8 8 8 8 7 6 6 7 6 6 6 6 6 5 4 4 3 3 3 3 3 4 3 3 3 3 3 3 3 4
11 11 10 11 11 10 10 9 9 9 9 8 8 8 7 7 8 8 8 7 7 7 6 5 5 5 4 3 3 3 3 3 4 4 3 3 2 2 3 3 3 3 3
12 11 11 11 11 10 9 9 9 8 8 8 7 7 7 7 7 7 7 6 6 5 4 4 3 3 4 3 3 3 2 2 3 3 2 2 2 2 2 1 1 2 3
12 12 12 12 11 10 10 9 10 9 8 8 7 8 8 8 7 6 6 5 5 5 4 4 3 2 3 4 4 3 2 1 2 1 1 1 0 0 1 1 2 3 3
13 13 12 12 12 11 10 10 9 9 9 9 9 9 9 8 7 7 6 5 4 4 4 3 3 3 3 3 3 2 2 1 1 0 0 0 1 2 2 2 3 3 3
14 14 13 12 12 11 10 10 9 9 9 9 9 9 8 8 8 7 6 6 5 5 4 3 4 4 4 3 2 1 1 1 1 1 1 2 3 3 4 3 4 4 5
14 14 14 13 13 12 11 10 10 10 10 9 9 9 9 8 8 8 7 6 6 6 5 4 5 5 4 4 3 2 1 1 1 1 2 3 4 5 5 5 5 6 6
14 13 13 14 13 13 12 10 9 9 9 9 9 9 9 9 8 8 7 7 6 6 6 6 6 5 4 4 3 3 2 1 0 2 3 4 4 4 5 6 7 7 7
13 12 13 13 13 12 12 11 10 9 8 8 9 8 8 8 8 8 8 6 6 6 6 6 5 4 3 3 3 2 2 2 2 3 3 4 4 5 6 6 7 8 8
12 12 12 12 12 12 12 11 11 10 9 8 8 8 8 8 8 8 8 7 5 5 6 6 5 4 4 4 4 3 3 3 4 4 5 5 6 7 7 7 7 8 8
13 12 11 11 11 11 12 12 11 10 9 9 9 8 8 8 8 8 8 7 6 6 6 6 5 5 4 4 4 3 3 4 4 5 5 6 7 7 8 8 8 8 8
12 12 11 10 10 11 11 11 11 10 9 9 9 8 8 8 8 8 8 8 6 6 5 5 5 4 4 4 3 4 4 4 4 5 5 7 7 8 8 9 9 9 9
12 11 11 10 10 10 10 10 10 10 9 9 8 8 8 8 7 7 7 7 6 5 5 4 4 4 4 5 4 4 4 4 4 5 6 7 8 8 8 9 9 9 9
11 11 10 9 9 9 10 10 10 10 10 8 8 8 7 7 7 7 7 6 5 5 4 4 4 4 4 4 5 5 5 5 5 6 8 9 9 9 9 9 10 10 10
10 10 9 9 9 9 9 10 10 9 9 8 8 7 7 7 7 7 7 6 5 5 4 4 4 5 4 4 5 5 6 7 7 7 8 9 10 10 10 10 11 12 12
Wind_Direction
118 122 121 111 103 100 101 103 94 86 92 99 102 113 122 130 130 127 127 133 141 141 139 130 138 138 140 143 148 152 151 151 163 162 163 163 167 169 170 171 173 167 169
113 120 125 117 107 103 101 106 96 88 90 91 100 113 115 120 123 113 112 121 129 138 136 132 135 137 132 137 140 141 144 154 166 170 169 166 165 163 175 172 173 177 173
104 112 116 113 106 104 100 101 102 97 96 94 101 111 113 115 115 114 116 116 121 130 134 131 131 135 132 133 135 137 136 153 167 173 176 177 173 179 185 181 182 183 181
101 107 110 108 104 104 101 100 103 101 99 99 103 105 105 111 115 112 120 123 123 126 132 133 134 135 135 132 131 134 138 148 158 163 172 179 180 177 178 178 183 185 187
97 101 101 101 102 102 101 101 102 98 100 101 104 97 94 104 116 123 123 127 126 127 131 136 134 133 134 136 136 139 139 153 160 154 163 179 182 182 171 175 179 185 192
95 98 98 95 97 95 93 96 98 98 102 101 101 96 96 103 112 118 123 125 126 129 129 138 136 130 130 134 131 148 151 170 169 156 173 177 176 175 171 170 174 188 197
93 95 94 94 99 97 95 92 96 100 105 104 99 98 99 103 111 119 126 129 126 126 127 141 141 130 134 145 147 166 173 171 158 154 169 176 178 177 180 183 183 192 191
90 90 91 90 95 97 96 94 95 100 105 106 100 98 102 106 111 117 127 130 132 131 126 127 142 148 145 146 147 149 152 150 149 156 162 176 183 186 185 184 187 193 196
87 88 90 88 89 93 93 94 97 99 99 104 99 100 100 104 112 121 116 123 130 128 126 123 131 138 133 134 137 135 140 148 157 161 161 166 176 182 180 179 187 195 204
85 84 88 82 80 88 91 90 91 96 97 99 94 96 96 104 110 113 113 112 111 116 120 121 122 122 121 127 129 130 135 136 151 163 154 159 171 182 180 174 188 200 212
83 82 83 82 84 87 88 90 89 93 96 97 93 91 91 99 102 105 111 107 104 110 117 116 114 115 126 129 121 114 115 107 125 139 146 148 164 182 179 185 211 227 223
79 80 80 79 82 86 89 88 84 87 93 94 93 91 89 92 97 101 107 104 112 115 116 117 121 124 127 124 115 108 116 116 114 110 129 140 148 172 186 202 228 240 238
79 80 81 80 78 82 85 83 82 85 91 93 96 95 91 86 87 91 92 100 116 123 127 128 124 124 128 128 123 123 115 103 113 109 120 156 170 176 197 207 218 231 247
74 74 76 78 80 81 82 81 80 84 89 84 89 91 88 86 83 78 85 94 101 107 112 119 118 127 131 134 144 149 137 103 108 107 105 130 167 187 202 225 241 254 270
72 73 73 74 75 79 81 79 81 83 82 81 79 80 79 85 79 74 83 85 87 90 92 93 109 125 128 135 145 159 158 123 124 110 72 110 166 253 299 290 277 279 276
71 71 70 70 67 74 81 83 83 82 81 79 72 72 74 73 71 76 80 77 77 75 82 88 100 116 115 124 129 150 186 183 189 134 4 187 265 266 274 284 280 284 286
69 69 68 66 65 68 73 80 80 77 76 74 72 71 69 70 69 71 75 69 72 71 66 65 75 99 105 112 110 116 185 182 203 243 296 296 290 280 279 282 283 284 289
67 67 66 65 66 70 72 73 72 70 73 72 71 69 67 68 69 66 65 61 67 73 69 66 76 86 93 92 92 85 108 162 235 283 301 295 291 285 286 286 290 287 288
64 66 64 63 65 69 71 71 70 69 70 67 66 65 65 66 65 60 62 63 70 71 74 72 76 80 81 77 73 63 74 89 358 310 311 311 310 305 298 292 296 295 292
62 64 63 63 64 68 68 66 64 63 66 68 66 63 62 62 60 58 56 61 65 69 72 69 62 63 63 59 55 52 42 30 5 347 335 334 333 327 322 315 308 301 295
61 62 61 61 63 65 65 63 60 59 61 64 63 60 60 58 56 54 52 55 58 63 62 57 56 49 42 39 33 23 7 357 346 342 339 340 335 330 326 315 305 300 297
57 59 59 59 61 60 62 61 58 57 56 58 58 59 58 55 53 50 49 51 56 59 55 50 45 38 33 26 15 6 351 341 337 335 335 337 334 331 327 319 306 301 298
53 55 56 57 61 59 59 57 54 53 51 53 52 56 58 56 51 49 45 43 43 44 42 39 28 22 19 14 359 343 332 323 329 335 333 333 331 327 325 324 317 307 303
51 52 52 55 60 57 55 57 55 50 51 51 50 51 52 51 47 43 39 37 35 30 27 24 16 11 6 357 345 338 336 328 325 330 329 328 329 328 325 323 324 319 313
46 47 47 52 52 52 50 51 50 46 47 47 46 47 43 41 37 34 32 31 32 28 18 10 3 354 354 346 338 334 328 327 324 324 325 325 327 328 327 326 324 319 314
39 41 42 45 50 51 51 48 45 40 37 38 38 35 31 28 25 19 17 17 17 16 7 354 345 344 341 336 335 327 323 321 321 321 319 320 320 324 327 325 321 317 313
Height
5876 5875 5876 5876 5875 5875 5875 5875 5875 5875 5874 5874 5873 5873 5873 5874 5874 5874 5874 5873 5874 5875 5875 5877 5878 5879 5879 5880 5880 5881 5882 5882 5883 5883 5884 5884 5885 5886 5887 5887 5888 5888 5889
5876 5876 5877 5876 5876 5876 5876 5876 5876 5876 5875 5875 5875 5874 5874 5874 5875 5875 5874 5873 5873 5875 5876 5877 5878 5879 5880 5881 5881 5881 5882 5882 5883 5883 5884 5885 5886 5886 5887 5887 5888 5889 5889
5877 5877 5877 5877 5877 5877 5877 5877 5877 5877 5876 5876 5876 5876 5876 5875 5875 5875 5875 5874 5874 5875 5877 5878 5879 5879 5880 5881 5881 5882 5882 5882 5883 5883 5884 5885 5886 5886 5887 5887 5888 5888 5889
5878 5878 5878 5878 5878 5878 5878 5878 5878 5878 5878 5877 5877 5877 5877 5876 5876 5876 5876 5876 5876 5876 5878 5879 5879 5880 5881 5881 5882 5882 5882 5883 5884 5884 5885 5886 5886 5886 5886 5887 5888 5888 5889
5879 5879 5879 5879 5879 5879 5879 5879 5879 5878 5878 5878 5878 5878 5878 5877 5877 5877 5877 5877 5878 5878 5879 5880 5880 5880 5880 5882 5883 5883 5883 5884 5884 5885 5885 5886 5887 5887 5886 5887 5887 5888 5888
5880 5880 5880 5880 5880 5880 5880 5880 5880 5879 5879 5879 5879 5879 5878 5878 5878 5878 5878 5879 5879 5879 5880 5880 5880 5881 5881 5882 5883 5883 5883 5884 5884 5885 5886 5886 5887 5887 5886 5887 5887 5887 5888
5881 5881 5881 5881 5881 5881 5881 5881 5881 5880 5880 5880 5880 5879 5879 5879 5879 5879 5879 5879 5880 5880 5880 5881 5880 5881 5882 5882 5883 5883 5884 5884 5885 5885 5885 5886 5886 5886 5887 5887 5887 5887 5888
5883 5883 5882 5882 5882 5882 5882 5882 5882 5881 5881 5881 5881 5880 5880 5880 5880 5880 5880 5880 5881 5881 5881 5882 5881 5882 5883 5883 5883 5883 5884 5884 5885 5885 5885 5885 5886 5886 5886 5887 5887 5887 5887
5884 5884 5884 5883 5883 5883 5883 5883 5883 5882 5882 5882 5882 5881 5881 5881 5881 5881 5881 5881 5882 5882 5883 5883 5883 5883 5884 5884 5884 5884 5884 5885 5885 5885 5885 5885 5885 5885 5886 5886 5887 5887 5887
5886 5885 5885 5885 5884 5884 5884 5884 5884 5883 5883 5883 5883 5882 5882 5882 5882 5882 5882 5882 5883 5883 5884 5884 5884 5884 5884 5885 5885 5885 5885 5885 5885 5885 5885 5885 5885 5885 5885 5886 5886 5886 5886
5887 5887 5887 5887 5886 5885 5885 5885 5885 5884 5884 5884 5884 5884 5884 5883 5883 5883 5883 5883 5884 5884 5884 5885 5885 5885 5885 5886 5886 5885 5885 5885 5885 5885 5884 5885 5885 5885 5885 5885 5886 5886 5886
5890 5889 5889 5888 5887 5887 5886 5886 5886 5886 5886 5886 5886 5885 5885 5885 5885 5885 5884 5884 5885 5885 5885 5886 5886 5886 5886 5886 5886 5886 5886 5886 5885 5885 5884 5885 5885 5885 5885 5885 5885 5885 5885
5892 5891 5891 5890 5889 5888 5888 5888 5888 5888 5887 5887 5887 5887 5886 5886 5886 5886 5886 5885 5886 5886 5886 5886 5886 5887 5887 5887 5886 5886 5886 5886 5885 5885 5885 5885 5885 5885 5885 5885 5884 5884 5884
5894 5893 5893 5892 5891 5891 5890 5890 5889 5889 5889 5889 5888 5888 5888 5887 5887 5887 5886 5886 5886 5886 5886 5886 5887 5887 5887 5887 5887 5887 5886 5886 5886 5886 5885 5885 5885 5885 5885 5884 5884 5884 5883
5897 5896 5895 5894 5893 5892 5892 5891 5891 5890 5890 5890 5889 5889 5889 5889 5888 5888 5887 5887 5887 5887 5887 5887 5887 5887 5887 5887 5887 5887 5887 5886 5886 5886 5886 5886 5885 5885 5884 5884 5884 5883 5883
5899 5898 5897 5896 5895 5894 5893 5893 5893 5893 5892 5892 5891 5890 5890 5890 5889 5889 5889 5888 5888 5887 5887 5887 5887 5888 5888 5887 5887 5887 5887 5886 5886 5886 5886 5886 5885 5885 5884 5883 5883 5882 5882
5901 5900 5899 5898 5896 5895 5893 5894 5894 5894 5894 5893 5892 5892 5892 5891 5891 5890 5890 5889 5889 5888 5887 5887 5887 5887 5888 5887 5887 5887 5887 5887 5886 5886 5886 5885 5885 5884 5883 5883 5882 5881 5881
5903 5902 5901 5900 5899 5897 5896 5896 5896 5896 5895 5895 5894 5894 5893 5893 5892 5892 5891 5890 5889 5888 5888 5888 5888 5888 5888 5888 5887 5887 5887 5887 5886 5886 5885 5884 5884 5883 5882 5882 5881 5880 5879
5905 5904 5903 5902 5901 5900 5899 5898 5898 5897 5897 5896 5896 5895 5895 5894 5893 5893 5892 5891 5890 5889 5889 5889 5889 5889 5889 5888 5888 5887 5887 5887 5886 5885 5884 5883 5882 5882 5881 5880 5879 5878 5878
5908 5907 5906 5904 5903 5902 5901 5901 5900 5899 5898 5898 5897 5897 5896 5895 5894 5894 5893 5892 5891 5891 5890 5890 5890 5889 5889 5888 5888 5887 5887 5887 5886 5885 5884 5883 5881 5880 5879 5878 5877 5877 5876
5910 5908 5907 5906 5906 5905 5904 5903 5902 5901 5900 5899 5898 5898 5897 5896 5895 5895 5894 5893 5892 5892 5891 5891 5890 5890 5889 5888 5888 5887 5887 5886 5885 5884 5883 5882 5881 5880 5878 5877 5876 5875 5874
5911 5910 5909 5908 5907 5906 5905 5904 5904 5902 5901 5900 5899 5898 5898 5897 5896 5895 5894 5894 5893 5892 5892 5891 5890 5890 5889 5888 5888 5887 5886 5886 5885 5884 5882 5881 5880 5879 5877 5875 5874 5873 5872
5913 5912 5911 5910 5909 5908 5907 5906 5905 5904 5903 5902 5901 5900 5899 5897 5897 5896 5895 5894 5893 5892 5892 5891 5890 5890 5889 5888 5887 5887 5886 5885 5884 5883 5882 5881 5879 5877 5876 5874 5872 5871 5869
5916 5914 5913 5911 5910 5910 5909 5908 5907 5906 5904 5903 5901 5900 5900 5898 5897 5896 5895 5894 5893 5892 5891 5891 5890 5889 5888 5887 5887 5886 5885 5884 5884 5882 5881 5880 5878 5876 5874 5873 5871 5869 5868
5917 5916 5914 5913 5912 5911 5910 5909 5908 5906 5905 5903 5902 5901 5900 5899 5898 5897 5895 5894 5893 5892 5891 5890 5890 5889 5888 5887 5886 5885 5884 5883 5882 5881 5880 5878 5876 5875 5873 5871 5869 5868 5866
5919 5917 5916 5914 5913 5912 5911 5910 5909 5907 5906 5904 5903 5902 5901 5900 5898 5897 5895 5894 5893 5892 5891 5890 5889 5887 5887 5886 5885 5884 5883 5881 5880 5879 5878 5876 5875 5873 5871 5869 5868 5866 5863